www.pogodaiklimat.ru

Погода и климат >> Архив погоды >> Индонезия >> Толи-Толи


ПОГОДА в Толи-Толи

  • Прогноз погоды в Толи-Толи
  • Монитор погоды в Толи-Толи

АРХИВ ПОГОДЫ в Толи-Толи

Время (UTC), дата Ветер
(напр.,м/с)
 
Видим.   Явления Облачность Т
(С)
Тd
(С)
f
(%)
Тe
(С)
Тes
(С)
Комфортность P
(гПа)
Po
(гПа)
Тmin
(С)
Tmax
(С)
R
(мм)
R24
(мм)
S
(см)
03 15.08 СЗ 2 13 км 1/1 600 м
[Cu med, cong As trans Ci fib]
+31.6 +23.4 62 +42 +62 опасность
перегрева
1011.3 1011.0
06 15.08 СЗ 1 13 км 3/3 600 м
[Cu med, cong As op Ci fib]
+32.2 +24.7 65 +45 +58 опасность
перегрева
1009.6 1009.4
09 15.08 СЗ 2 12 км 8/4 600 м
[Sc As op Ci fib]
+30.4 +24.7 72 +43 +44 опасность
перегрева
1009.7 1009.5
12 15.08 В 1 8000 м 9/4 600 м
[Sc As op Ci fib]
+27.8 +24.3 81 +39 +39 очень
душно
1010.6 1010.4 +32.2
15 15.08 В 1 8000 м 9/4 600 м
[Sc As op Ci fib]
+26.6 +23.9 85 +37 +37 очень
душно
1010.4 1010.2
18 15.08 В 1 8000 м 6/3 600 м
[Sc diur, vesp As op Ci fib]
+25.0 +22.7 87 +33 +33 очень
душно
1011.2 1011.0
21 15.08 В 2 8000 м 4/3 600 м
[Sc diur, vesp As trans Ci fib]
+24.5 +22.2 87 +32 +32 очень
душно
1010.5 1010.3
00 16.08 В 1 12 км 1/1 600 м
[Sc diur, vesp As trans Ci fib]
+28.4 +23.4 74 +38 +44 очень
душно
1012.1 1011.8 +24.4
03 16.08 З 3 13 км 1/1 600 м
[]
+30.6 +24.4 70 +43 +59 опасность
перегрева
1011.8 1011.6
06 16.08 СЗ 2 13 км 3/3 600 м
[Cu med, cong As trans]
+31.8 +23.6 62 +43 +54 опасность
перегрева
1009.8 1009.6
09 16.08 З 2 8000 м 6/3 600 м
[Cu med, cong As trans Ci fib]
+29.7 +23.6 70 +41 +41 опасность
перегрева
1008.8 1008.5
12 16.08 В 2 8000 м 8/4 600 м
[Sc As op Ci fib]
+27.7 +23.7 79 +38 +38 очень
душно
1010.8 1010.5 +32.0
15 16.08 В 1 8000 м 8/4 600 м
[Sc As op Ci fib]
+25.8 +24.0 90 +36 +36 очень
душно
1011.6 1011.3
18 16.08 В 1 8000 м 10/4 600 м
[Sc As op Ci fib]
+25.8 +23.1 85 +34 +34 очень
душно
1011.0 1010.8
21 16.08 В 1 8000 м 10/4 600 м
[Sc As op Ci fib]
+24.6 +22.1 86 +32 +32 очень
душно
1011.0 1010.8
00 17.08 В 2 12 км 1/1 600 м
[Sc diur, vesp As trans Ci fib]
+28.4 +22.8 72 +38 +43 очень
душно
1012.5 1012.3 +24.0
03 17.08 СЗ 2 13 км 3/3 600 м
[Cu med, cong As trans Ci fib]
+30.4 +24.2 70 +42 +58 опасность
перегрева
1012.2 1011.9
06 17.08 СЗ 2 9000 м осадки на расстоянии 6/4 570 м
[Cu med, cong As op Ci fib]
+31.6 +24.5 66 +44 +53 опасность
перегрева
1010.0 1009.8
09 17.08 штиль 0 10 км 8/4 600 м
[Sc diur, vesp As op Ci fib]
+30.0 +24.5 72 +42 +43 опасность
перегрева
1009.5 1009.2
12 17.08 Ю 1 8000 м 8/4 600 м
[Sc As op Ci fib]
+26.8 +22.6 78 +35 +35 очень
душно
1011.6 1011.4 +32.0
15 17.08 В 1 8000 м 5/3 600 м
[Sc As op Ci fib]
+24.6 +22.1 86 +32 +32 очень
душно
1012.3 1012.1
18 17.08 ЮВ 1 8000 м 5/3 600 м
[Sc As op Ci fib]
+23.2 +22.1 94 +32 +32 очень
душно
1011.0 1010.7
21 17.08 штиль 0 8000 м 5/3 600 м
[Sc As op Ci fib]
+23.4 +21.5 89 +32 +32 очень
душно
1011.2 1011.0
00 18.08 В 1 12 км 1/1 600 м
[Cu med, cong As trans]
+27.6 +22.9 76 +37 +43 очень
душно
1012.1 1011.8 +23.0
03 18.08 З 2 13 км 1/1 600 м
[Cu med, cong As trans]
+30.7 +24.2 68 +43 +60 опасность
перегрева
1012.1 1011.8
06 18.08 СЗ 2 12 км 5/3 570 м
[Cu med, cong Ac As Ci fib]
+30.3 +24.4 71 +43 +52 опасность
перегрева
1009.8 1009.6
09 18.08 СЗ 2 13 км 6/4 600 м
[Cu med, cong As op Ci fib]
+31.1 +23.7 65 +42 +43 опасность
перегрева
1009.3 1009.4
12 18.08 В 2 8000 м 4/3 600 м
[Sc diur, vesp As trans Ci fib]
+27.3 +23.6 80 +37 +37 очень
душно
1010.9 1010.7 +32.4
15 18.08 В 2 8000 м 4/3 600 м
[Sc diur, vesp As trans Ci fib]
+25.4 +22.2 82 +33 +33 очень
душно
1012.2 1012.0
18 18.08 В 1 8000 м 4/1 600 м
[Sc As trans Ci fib]
+23.9 +22.0 89 +31 +31 очень
душно
1010.2 1010.0
21 18.08 ЮВ 1 8000 м 4/1 600 м
[Sc As trans Ci fib]
+23.1 +21.7 92 +31 +31 очень
душно
1010.0 1009.7
00 19.08 ЮВ 1 12 км 1/1 600 м
[Cu med, cong Ci fib]
+27.2 +22.7 76 +36 +42 очень
душно
1011.4 1011.1 +23.0
06 19.08 СЗ 2 12 км 8/4 600 м
[Cu med, cong Ac As Ci fib]
+31.1 +24.8 69 +44 +50 опасность
перегрева
1008.7 1008.5
09 19.08 З 1 12 км 9/4 600 м
[Sc diur, vesp As op Ci fib]
+29.4 +25.5 80 +43 +44 опасность
перегрева
1008.6 1008.4
12 19.08 В 1 8000 м 9/4 600 м
[Sc As op Ci fib]
+27.5 +24.0 81 +38 +38 очень
душно
1010.5 1010.3 +31.2
15 19.08 В 1 8000 м 6/3 600 м
[Sc As op Ci fib]
+25.4 +22.8 86 +34 +34 очень
душно
1010.7 1010.4
18 19.08 В 1 8000 м 6/3 600 м
[Sc diur, vesp As op Ci fib]
+24.6 +22.1 86 +32 +32 очень
душно
1009.5 1009.3
21 19.08 ЮВ 1 8000 м 8/3 600 м
[Sc diur, vesp As op Ci fib]
+24.4 +22.1 87 +32 +32 очень
душно
1009.2 1009.0
00 20.08 ЮВ 1 13 км 6/3 600 м
[Sc As op Ci fib]
+27.0 +24.0 84 +37 +41 очень
душно
1010.8 1010.6 +24.2
03 20.08 З 1 13 км 5/3 600 м
[Sc As op Ci fib]
+30.8 +24.2 68 +43 +57 опасность
перегрева
1010.2 1010.0
06 20.08 СЗ 2 13 км {гроза} 5/3 600 м
[Sc As op Ci fib]
+32.0 +24.3 64 +44 +55 опасность
перегрева
1007.8 1007.5
09 20.08 С 1 13 км 9/4 600 м
[Cu med, cong Ac As Ci fib]
+30.2 +23.0 65 +40 +41 очень
душно
1008.4 1008.2
12 20.08 В 2 8000 м 6/3 600 м
[Sc As op Ci fib]
+27.2 +24.5 85 +38 +38 очень
душно
1009.9 1009.7 +32.2
15 20.08 В 1 8000 м 4/1 600 м
[Sc diur, vesp As op Ci fib]
+25.3 +23.5 90 +34 +34 очень
душно
1010.9 1010.7
18 20.08 В 2 8000 м 4/3 600 м
[Sc diur, vesp As trans Ci fib]
+24.1 +21.9 88 +31 +31 очень
душно
1009.2 1009.0
21 20.08 В 1 8000 м 4/3 600 м
[Sc diur, vesp As op Ci fib]
+23.2 +21.3 89 +31 +31 очень
душно
1008.9 1008.7
00 21.08 В 2 12 км 1/1 600 м
[Sc diur, vesp As trans Ci sp]
+28.0 +22.8 73 +37 +43 очень
душно
1010.5 1010.3 +23.2
03 21.08 СЗ 2 13 км 1/1 600 м
[Cu med, cong As trans Ci fib]
+30.4 +24.4 70 +42 +61 опасность
перегрева
1009.5 1009.3
06 21.08 СЗ 3 12 км 1/1 600 м
[Cu med, cong As trans Ci fib]
+31.8 +24.4 65 +44 +56 опасность
перегрева
1006.9 1006.7
09 21.08 штиль 0 13 км 4/3 600 м
[Sc As op Ci fib]
+31.0 +22.5 61 +41 +42 опасность
перегрева
1007.1 1006.9
12 21.08 В 1 8000 м 4/3 600 м
[Sc As op Ci fib]
+28.0 +24.4 81 +39 +39 очень
душно
1009.5 1009.3 +32.2
15 21.08 В 4 8000 м 4/3 600 м
[Sc As op Ci fib]
+26.0 +23.6 87 +35 +35 очень
душно
1011.3 1011.1
18 21.08 В 1 8000 м 4/1 600 м
[Sc As trans Ci fib]
+24.0 +22.6 92 +31 +31 очень
душно
1010.2 1010.0
21 21.08 ЮВ 1 8000 м 5/3 600 м
[Sc As op Ci fib]
+22.8 +21.7 94 +31 +31 очень
душно
1010.1 1009.9
00 22.08 В 1 12 км 3/1 600 м
[Sc diur, vesp As trans Ci sp]
+27.4 +23.3 78 +37 +42 очень
душно
1011.4 1011.1 +22.7

 

Местоположение метеостанции Толи-Толи (Индонезия): широта 1.02 долгота 120.80 высота над уровнем моря 2 м.

В архиве по умолчанию представлена погода в Толи-Толи за последнюю неделю. Архивные данные за месяц целиком и за предыдущие месяцы, начиная с января 2011 года, Вы можете получить, выбрав интересующий диапазон дат из раскрывающегося списка и нажав кнопку "Ввод!".


*Определитесь, кто Вы:
робот инопланетянин человек

Внимание! Время в таблицах - всемирное. Для получения местного времени необходимо прибавить поправку, которая равна 8 ч.

Смотрите также архив погоды в соседних городах и на ближайших метеорологических станциях:

Погода в Палу (Индонезия) (223 км)
Погода в Горонтало (Индонезия) (257 км)
Погода в Посо (Индонезия) (267 км)
Погода в Лувуке (Индонезия) (307 км)
Погода в Танджунгредепе (Индонезия) (392 км)
Погода в Масамбе (Индонезия) (400 км)
Погода в Танджунгселоре (Индонезия) (436 км)
Погода в Маджене (Индонезия) (440 км)
Погода в Таракане (Индонезия) (442 км)
Погода в Самаринде (Индонезия) (445 км)

Пояснения к столбцам:

Ветер - указаны скорость ветра в м/с - средняя за 10 мин, порывы в срок и между сроками (в фигурных скобках) и направление, откуда дует ветер: С - северный, СВ - северо-восточный, В - восточный, ЮВ - юго-восточный, Ю - южный, ЮЗ - юго-западный, З - западный, СЗ - северо-западный.
Видимость - горизонтальная дальность видимости в метрах или километрах. При видимости от 1 до 10 км при отсутствии осадков обычно наблюдается дымка, при ухудшении видимости до 1 км и менее - туман. В сухую погоду видимость может ухудшаться дымом, пылью или мглою.
Явления - указаны атмосферные явления, наблюдавшиеся в срок или в последний час перед сроком; фигурными скобками обозначены явления, наблюдавшиеся между сроками (за 1-3 часа до срока); квадратными скобками обозначены град или гололедные отложения с указанием их диаметра в мм.
Облачность - указаны через наклонную черту общая и нижняя облачность в баллах и высота нижней границы облаков в метрах; квадратными скобками обозначены формы облаков: Ci - перистые, Cs - перисто-слоистые, Cc - перисто-кучевые, Ac - высококучевые, As - высокослоистые, Sc - слоисто-кучевые, Ns - слоисто-дождевые, Cu - кучевые, Cb - кучево-дождевые. Подробнее классификацию облаков см. в Атласе облаков (PDF).
T - Температура воздуха - температура, измеренная на высоте 2 м над землей.
Td - Температура точки росы - температура, при понижении до которой содержащийся в воздухе водяной пар достигнет насыщения.
f - Относительная влажность воздуха - влажноcть воздуха, измеренная на высоте 2 м над землей.
Te - Эффективная температура - температура, которую ощущает одетый по сезону человек в тени. Характеристика душности погоды. При расчете учитывается влияние влажности воздуха и скорости ветра на теплоощущения человека.
Tes - Эффективная температура на солнце - температура, которую ощущает человек, с поправкой на солнечный нагрев. Характеристика знойности погоды. Зависит от высоты солнца над горизонтом, облачности и скорости ветра. Ночью, в пасмурную погоду, а также при ветре 12 м/с и более поправка равна нулю.
P - Атмосферное давление - приведенное к уровню моря атмосферное давление.
Po - Атмосферное давление - измеренное на уровне метеостанции атмосферное давление.
Tmin - Минимальная температура - минимум температуры воздуха на высоте 2 м над землей.
Tmax - Максимальная температура - максимум температуры воздуха на высоте 2 м над землей.
R - Количество осадков - Количество выпавших осадков за период времени, мм. При наведении курсора мыши на число - период времени, за который выпало указанное количество осадков.
R24 - Количество осадков - Количество выпавших осадков за 24 часа, мм.
S - Снежный покров - Высота снежного покрова, см. При наведении курсора мыши на число - состояние снежного покрова и степень покрытия местности в баллах.